Current weather by "City, St" or "zip code"  
 
Advertise Here

Current Conditions: Sandpoint, Sandpoint Airport, ID

Fair


54.0 F

Last Updated on May 30 2020, 1:55 am PDT
Humidity: 88%
Wind Speed: N 0.0 mph
Barometer 29.88 in
Dewpoint: 50.0 F
Visibility: 10.00 mi
Precip: --
Heat Index: NA
Wind Chill: NA
Current conditions at:

Sandpoint, Sandpoint Airport, ID (KSZT)

Lat: 48.29944 Lon: 116.56

Local Radar Image active severe weather and emergency alerts image image weather storm and storm spotter reports image weather observation monitoring service image
Local
Radar
Active
Alerts
Storm Reports Obs
Monitoring

Sign-up For Email & Text Message Weather Alert Notification Services


Advertise Here

Observation History for Sandpoint, Sandpoint Airport, ID


Time Wind
(mph)
Vis
(mi)
Weather Precip (in) Temperature (F) Relative
Humidity
Wind
Chill
(F)
Heat
Index
(F)
Pressure
Air Dwpt altimeter
(in)
sea level
(mb)
Rmks
1:55 am PDT N 0.0 10.00 Fair -- 54.0 50.0 88% NA NA 29.88 M
12:55 am PDT N 0.0 10.00 Fair -- 55.0 50.0 82% NA NA 29.88 M
11:55 pm PDT N 0.0 10.00 Fair -- 57.0 51.8 82% NA NA 29.89 M
10:55 pm PDT N 0.0 10.00 Fair -- 59.0 51.8 77% NA NA 29.88 M
9:55 pm PDT N 0.0 10.00 Fair -- 64.0 50.0 60% NA NA 29.89 M
8:55 pm PDT N 0.0 10.00 Fair -- 66.0 53.6 64% NA NA 29.88 M
7:55 pm PDT N 5.8 10.00 Fair -- 77.0 46.4 34% NA NA 29.88 M
6:55 pm PDT N 3.5 10.00 Fair -- 82.0 42.8 25% NA 80 29.88 M
5:55 pm PDT N 3.5 10.00 Fair -- 84.0 42.8 23% NA 81 29.88 M
4:55 pm PDT SE 3.5 10.00 Fair -- 82.0 42.8 25% NA 80 29.89 M
3:55 pm PDT E 3.5 10.00 Fair -- 82.0 42.8 25% NA 80 29.91 M
2:55 pm PDT E 4.6 10.00 Fair -- 81.0 41.0 24% NA 79 29.94 M
1:55 pm PDT SE 4.6 10.00 Fair -- 79.0 42.8 28% NA NA 29.96 M
12:55 pm PDT N 0.0 10.00 Fair -- 77.0 42.8 30% NA NA 29.97 M
11:55 am PDT NE 9.2 10.00 Fair -- 75.0 41.0 29% NA NA 29.99 M
10:55 am PDT NE 11.5 10.00 Fair -- 72.0 41.0 33% NA NA 30.00 M
9:55 am PDT NE 15.0 G 19.6 10.00 Fair -- 68.0 39.2 35% NA NA 30.02 M
8:55 am PDT NE 12.7 G 18.4 10.00 Fair -- 64.0 39.2 40% NA NA 30.03 M
7:55 am PDT NE 13.8 G 20.7 10.00 Fair -- 63.0 37.4 39% 61 NA 30.04 M
6:55 am PDT NE 10.4 10.00 Fair -- 59.0 39.2 48% 57 NA 30.04 M
5:55 am PDT N 0.0 10.00 Fair -- 48.0 42.8 82% NA NA 30.04 M
4:55 am PDT W 3.5 10.00 Fair -- 48.0 42.8 82% NA NA 30.02 M
3:55 am PDT N 0.0 10.00 Fair -- 48.0 42.8 82% NA NA 30.02 M
2:55 am PDT W 3.5 10.00 Fair -- 50.0 42.8 76% NA NA 30.02 M

Regional Weather Observation


Boundary County Airport, ID (K65S)

Fair
55.0 F

Coeur dAlene Airport - Pappy Boyington Field, ID (KCOE)

Fair
62.0 F

Deer Park, Deer Park Airport, WA (KDEW)

Fair
68.0 F

Spokane, Felts Field, WA (KSFF)

Fair
62.0 F

Spokane, Spokane International Airport, WA (KGEG)

Mostly Cloudy
70.0 F

Fairchild Air Force Base, WA (KSKA)

Partly Cloudy
68.0 F